Lapse_Rate
6.4 6.3 6.3 6.2 6.3 6.3 6.4 6.4 6.4 6.3 6.3 6.4 6.4 6.5 6.5 6.6 6.8 6.8 6.8 6.7 6.7 6.9 6.9 6.8 6.7 6.6 6.9 6.9 7.6 7.9 8.1 8.9 8.9 8.4 8.6 8.3 8.6 8.9 8.8 9.0 9.0 9.0 9.0 8.8 8.2
6.3 6.3 6.2 6.2 6.2 6.3 6.3 6.3 6.4 6.4 6.5 6.6 6.6 6.6 6.6 6.6 6.6 6.7 6.9 6.7 6.9 7.0 6.9 6.9 6.8 6.7 6.8 7.0 7.5 7.9 8.1 8.6 9.0 8.7 8.6 8.5 8.7 8.9 9.1 9.1 9.1 9.1 9.0 9.0 8.9
6.3 6.3 6.3 6.3 6.2 6.3 6.3 6.3 6.4 6.5 6.5 6.6 6.7 6.7 6.7 6.7 6.7 6.8 6.8 6.8 7.0 6.9 7.0 6.9 7.0 7.0 7.1 7.0 7.6 7.9 8.2 8.4 8.8 8.7 8.7 8.7 8.7 8.7 9.2 9.4 9.4 9.4 8.9 8.6 8.6
6.4 6.4 6.4 6.3 6.2 6.3 6.3 6.4 6.5 6.6 6.6 6.7 6.8 6.8 6.8 6.7 6.5 6.4 6.6 6.7 6.9 7.0 7.0 7.0 7.1 7.2 7.2 7.2 7.7 8.0 8.3 8.4 8.9 8.8 8.7 7.9 8.0 8.9 9.1 9.3 9.2 9.0 8.6 8.4 8.5
6.5 6.5 6.5 6.5 6.4 6.3 6.3 6.4 6.4 6.5 6.6 6.7 6.7 6.8 6.8 6.7 6.4 6.4 6.3 6.6 6.8 6.9 6.9 7.1 7.1 7.3 7.2 7.5 7.7 8.0 8.4 8.5 8.6 8.9 8.9 8.2 7.8 8.5 8.9 8.7 9.0 8.7 8.6 7.9 7.7
6.5 6.5 6.5 6.5 6.6 6.5 6.5 6.5 6.5 6.6 6.6 6.7 6.7 6.8 7.0 6.7 6.8 6.7 6.6 6.6 6.7 6.8 7.0 7.1 7.0 7.0 7.1 7.3 7.4 8.0 8.2 8.4 8.6 9.0 9.0 8.7 8.1 8.3 8.6 8.2 8.5 8.6 8.5 7.5 8.1
6.5 6.5 6.5 6.5 6.4 6.5 6.5 6.5 6.6 6.6 6.7 6.7 6.7 6.9 7.0 6.4 6.8 6.8 6.6 6.7 6.9 6.9 6.9 6.6 6.5 6.6 6.6 7.0 7.2 7.6 7.9 8.3 8.5 8.8 9.0 9.1 8.6 8.4 9.0 8.7 8.6 8.7 8.4 7.7 7.7
6.5 6.5 6.6 6.5 6.4 6.5 6.4 6.4 6.5 6.6 6.7 6.8 6.8 7.0 6.7 7.2 6.9 6.8 6.6 6.7 6.8 6.9 6.9 6.4 6.2 6.5 6.8 6.9 7.0 7.5 7.6 8.1 8.5 8.6 8.7 8.7 8.5 9.0 9.0 8.9 8.8 8.6 7.9 7.6 7.8
6.5 6.5 6.5 6.5 6.4 6.4 6.4 6.5 6.5 6.5 6.6 6.8 7.0 7.1 6.8 7.2 6.8 6.5 6.7 6.6 6.8 6.7 6.7 6.3 6.3 6.5 6.7 7.0 7.2 7.2 7.3 7.9 8.3 8.3 8.5 8.5 8.5 8.9 8.9 8.7 8.6 8.3 8.1 8.2 8.2
6.5 6.5 6.5 6.5 6.4 6.3 6.5 6.5 6.5 6.5 6.6 6.8 6.9 7.0 6.7 6.8 7.1 6.8 6.6 6.7 6.6 6.5 6.4 6.5 6.6 6.8 6.9 7.0 7.0 7.6 7.4 7.8 8.1 8.5 8.4 8.4 8.5 9.0 9.0 8.7 8.8 8.4 8.2 8.2 8.3
6.4 6.5 6.5 6.4 6.3 6.3 6.4 6.3 6.3 6.5 6.7 6.9 6.9 6.8 6.7 6.7 6.9 7.0 6.5 6.5 6.6 6.5 6.5 6.5 6.6 7.0 7.6 7.3 7.2 7.4 7.4 7.7 8.1 8.3 8.3 8.6 8.5 9.1 9.4 9.1 8.4 8.3 8.3 8.2 8.1
6.3 6.3 6.4 6.3 6.3 6.2 6.0 6.0 6.4 6.7 7.4 7.0 7.3 7.2 6.9 6.9 7.1 6.9 7.0 6.7 6.7 6.8 6.7 6.5 6.9 7.5 7.3 7.1 7.0 7.1 7.1 7.9 8.3 8.5 8.2 8.3 8.1 8.7 9.3 8.9 8.8 8.6 8.2 8.2 8.2
6.3 6.3 6.2 6.1 6.1 6.0 6.0 6.1 6.3 6.5 6.9 7.1 7.6 7.6 7.2 7.0 7.3 7.1 7.1 6.9 6.8 6.7 6.6 6.7 7.1 7.0 7.0 7.0 6.8 7.0 7.1 7.7 8.0 8.8 8.5 8.2 8.3 8.6 9.3 9.4 8.9 9.1 8.8 8.6 8.4
6.4 6.3 6.2 6.0 5.9 6.0 6.0 6.1 6.1 6.3 6.9 7.2 7.3 7.1 7.3 7.2 7.0 7.0 7.0 6.9 6.7 6.8 6.9 6.6 6.9 7.4 7.4 7.2 7.3 7.3 7.7 7.9 8.1 8.2 8.1 8.6 8.1 8.5 9.0 9.0 8.7 9.3 8.8 8.5 8.3
6.6 6.5 6.3 6.2 6.1 6.0 5.8 5.9 6.2 6.3 5.8 7.0 7.0 7.0 6.9 7.0 7.2 7.2 7.1 6.9 7.0 7.0 6.6 6.9 7.1 7.3 7.4 7.6 7.4 6.9 7.6 7.4 7.6 7.8 7.9 8.1 8.5 8.3 8.7 8.9 8.6 8.7 8.4 8.4 8.4
6.8 6.7 6.5 6.3 6.2 6.1 6.1 6.1 6.2 6.1 6.5 6.8 6.6 6.7 7.1 7.3 7.4 7.2 7.2 7.1 7.1 7.0 6.8 7.0 7.2 7.2 7.4 7.7 7.8 7.7 7.6 7.7 7.7 7.9 6.9 7.9 8.3 8.4 8.5 9.0 9.1 8.9 8.8 8.5 8.5
6.9 6.9 6.7 6.5 6.5 6.4 6.3 6.2 6.2 6.0 6.3 6.6 6.7 6.8 7.0 7.3 7.4 7.7 7.8 7.1 6.7 6.4 6.6 7.1 7.1 7.7 7.7 7.5 8.1 7.9 8.0 7.4 6.9 6.8 6.2 8.1 8.2 8.3 8.6 8.7 8.9 9.1 9.2 9.1 8.9
7.2 7.2 7.2 7.0 6.9 6.7 6.4 6.3 6.2 6.0 6.3 6.5 6.7 6.9 7.2 7.1 7.3 7.6 7.6 7.3 6.5 6.0 6.2 6.5 6.9 7.3 7.8 7.6 8.0 8.3 8.4 8.2 6.5 6.0 7.0 8.2 7.4 7.9 8.5 8.8 8.9 8.7 8.8 8.8 8.8
7.5 7.3 7.2 7.2 7.0 6.8 6.7 6.4 5.6 6.0 6.0 6.5 6.9 7.1 7.0 7.2 7.2 7.1 6.8 6.6 6.2 5.7 5.7 5.7 6.1 7.1 7.3 7.6 7.7 7.7 7.9 8.5 8.6 8.1 7.1 7.4 7.7 7.9 8.1 8.4 8.6 8.6 8.6 8.6 8.6
7.6 7.3 7.0 7.1 7.1 7.0 6.8 6.4 5.5 5.7 5.9 6.1 6.5 6.9 6.7 6.8 6.5 6.9 6.2 5.5 6.0 5.2 4.8 4.8 4.4 6.5 6.9 7.4 7.8 8.2 8.1 8.1 8.0 7.1 6.5 6.8 7.4 7.6 8.0 8.1 8.3 8.4 8.4 8.5 8.6
7.8 7.5 7.1 7.1 7.0 6.9 6.6 6.1 5.5 5.7 5.8 6.0 5.9 6.1 6.1 5.8 5.4 5.5 5.0 4.8 5.1 5.0 4.9 4.8 4.7 5.6 6.6 7.0 7.4 8.0 8.5 8.5 8.2 7.9 7.4 6.9 7.0 7.6 7.8 7.9 7.9 8.2 8.1 8.3 8.6
7.7 7.5 7.2 7.3 7.0 6.8 6.0 6.2 5.6 5.4 5.2 5.3 5.2 5.1 5.1 5.1 5.1 4.8 4.8 4.2 4.2 3.7 4.3 4.3 4.5 3.8 5.1 6.6 6.8 6.7 6.8 7.3 7.0 7.2 7.4 7.3 7.1 8.0 8.2 8.3 8.2 8.2 8.2 8.3 8.3
7.7 7.4 7.5 7.1 7.0 6.6 5.9 5.4 5.2 5.1 5.3 5.1 4.7 4.5 4.0 4.3 4.6 4.1 4.1 3.7 3.8 4.1 4.1 3.6 4.1 3.4 4.6 6.2 6.7 6.7 5.8 5.1 5.2 5.7 6.4 6.7 7.4 8.0 8.2 8.5 8.6 8.3 8.3 8.1 8.0
7.6 7.4 7.0 6.8 6.3 5.7 5.5 4.9 4.5 4.1 4.1 4.1 4.2 4.3 4.2 3.9 3.6 3.9 3.9 4.0 3.9 3.7 3.4 3.0 2.9 3.2 3.4 3.5 3.7 4.1 4.2 4.5 4.2 4.5 5.4 5.4 6.5 7.2 7.4 7.7 8.3 8.4 8.2 7.7 7.6
7.5 6.7 6.4 5.7 5.9 5.4 4.9 4.3 4.2 3.9 3.4 3.6 3.7 3.8 3.5 3.3 3.4 3.2 3.5 3.6 3.4 3.3 3.2 2.8 2.3 2.6 2.6 2.5 2.5 2.8 4.1 5.1 4.2 4.4 5.0 5.1 5.9 6.6 7.0 7.4 7.5 7.4 7.6 7.5 7.4
7.3 6.7 5.7 5.2 4.4 4.5 4.6 4.0 3.9 3.2 3.7 3.8 3.6 3.5 3.5 3.2 3.1 3.1 3.2 3.5 3.0 2.8 3.1 3.4 3.1 2.7 2.4 2.9 3.4 2.7 2.7 4.0 5.2 5.6 5.7 5.6 6.0 6.6 6.7 7.3 7.6 7.6 7.3 7.3 7.3
6.3 5.7 5.3 4.4 4.3 4.2 3.9 3.7 3.7 3.6 3.2 3.3 3.7 4.0 4.2 4.6 4.9 5.2 5.3 5.2 4.7 4.0 4.1 4.3 4.0 4.4 3.2 4.2 3.7 2.8 4.0 3.5 4.3 4.8 5.6 6.4 6.4 6.9 6.8 7.1 7.5 7.6 7.4 7.5 7.5
Wind_Speed
13 12 12 11 11 11 10 10 9 9 9 9 8 8 9 10 12 2 6 12 8 17 8 5 3 4 2 3 2 3 4 1 3 1 2 1 2 3 0 1 2 2 2 7 19
16 15 14 13 12 11 10 9 9 9 8 7 7 7 7 8 2 7 11 11 15 9 4 1 3 3 2 2 2 4 4 8 5 4 1 6 5 3 1 1 2 1 6 19 21
17 16 15 14 13 12 10 9 8 8 7 6 6 5 6 5 4 7 2 19 18 8 2 4 3 2 2 2 2 3 5 5 6 4 5 7 3 4 4 4 10 13 13 19 19
18 17 16 15 13 12 10 8 7 6 5 4 4 4 4 3 1 1 8 11 15 10 2 3 2 4 3 4 2 2 6 5 4 2 2 3 2 5 8 8 5 4 12 20 21
19 18 16 14 13 11 10 9 7 6 5 4 3 2 2 1 9 3 10 15 9 7 6 4 3 3 2 3 1 5 6 5 6 6 7 6 10 8 10 14 2 7 7 16 16
19 18 16 14 12 10 8 7 7 5 4 4 4 3 1 3 4 3 9 7 5 5 5 6 7 6 2 2 4 4 4 8 4 9 6 10 7 5 11 0 5 10 7 8 10
19 18 16 14 11 8 7 6 5 4 3 4 5 2 1 13 3 5 7 7 5 6 5 5 5 3 2 8 3 3 5 6 3 3 5 5 4 10 6 11 9 5 6 9 10
21 19 17 14 11 7 5 5 4 3 4 6 5 2 7 4 3 5 3 3 4 6 3 4 3 1 4 3 7 5 3 3 6 3 4 4 9 10 6 10 10 8 7 6 3
21 20 17 14 10 5 4 3 2 4 5 8 2 1 9 4 2 6 5 3 5 4 4 3 5 4 3 3 5 7 3 2 8 5 4 3 7 8 4 9 9 8 8 8 6
22 19 17 14 9 3 3 3 7 8 3 4 4 3 5 1 3 5 6 3 2 2 1 3 4 2 4 4 5 3 2 3 4 5 1 5 10 8 4 11 14 11 12 11 9
24 20 17 14 6 3 6 4 2 0 2 8 6 5 4 5 2 2 4 6 2 5 3 2 3 7 7 6 6 3 3 5 6 3 3 9 12 17 6 7 10 12 13 11 8
24 21 17 12 5 3 1 2 4 2 8 13 12 8 4 3 5 4 6 5 5 5 1 4 7 7 5 3 4 5 4 11 8 5 5 12 12 15 9 16 20 17 15 13 8
22 20 16 11 2 1 2 6 3 3 2 7 5 5 5 8 7 8 13 6 4 6 5 7 7 5 6 5 5 6 5 8 9 10 6 6 8 5 3 3 12 14 15 17 22
22 19 13 8 0 2 4 5 7 5 5 6 3 5 3 5 4 8 9 6 1 9 6 7 7 11 6 7 7 6 8 12 10 1 6 3 6 6 3 6 8 9 10 16 13
23 18 13 6 2 1 4 9 1 4 4 4 2 1 3 7 1 1 3 4 10 8 6 10 4 4 5 8 6 10 5 8 11 6 2 3 3 8 2 3 8 11 10 12 7
24 16 6 3 1 5 11 7 4 5 2 7 5 5 1 2 5 4 2 4 3 5 4 10 3 5 8 9 8 5 4 1 3 3 4 8 7 6 5 7 6 8 13 10 10
26 15 3 1 4 10 6 4 4 3 7 8 6 8 5 8 9 10 6 16 9 8 4 13 13 6 3 5 8 5 5 4 5 2 7 6 4 8 7 9 10 13 18 17 16
29 10 6 3 16 7 4 5 6 6 5 4 6 6 6 11 7 12 6 9 15 11 4 3 9 7 4 11 14 7 9 6 6 4 9 3 7 7 12 11 6 11 15 15 17
19 2 3 10 19 2 5 6 2 6 11 11 5 5 8 7 6 5 9 11 12 14 6 8 6 10 13 5 8 4 4 7 4 4 2 5 8 6 6 9 8 10 9 18 21
2 3 3 26 13 5 6 6 4 10 8 3 6 12 9 10 9 8 6 13 9 12 6 7 8 9 8 4 5 8 5 6 1 4 8 5 6 6 7 11 9 6 13 13 15
4 4 9 27 4 7 4 5 5 12 7 8 6 6 6 6 5 6 9 8 15 13 7 6 2 8 9 3 5 5 3 2 3 5 9 11 8 6 8 9 10 8 10 19 20
4 4 9 7 5 3 4 5 7 13 8 8 5 7 4 6 5 3 4 5 12 12 6 4 4 5 7 22 8 5 9 7 3 7 3 2 8 4 4 3 5 7 9 10 12
4 2 6 4 5 3 5 8 8 11 9 4 6 5 3 4 3 6 6 4 12 12 8 6 3 7 10 3 6 7 7 13 6 3 6 3 6 2 6 8 7 11 11 14 13
4 4 5 7 3 7 5 9 4 5 10 5 4 4 4 4 3 3 9 6 14 12 12 2 2 5 9 9 9 16 17 10 4 4 9 10 11 8 12 8 5 12 16 16 15
4 2 2 4 6 9 10 4 6 5 4 9 7 6 3 5 6 5 3 10 5 6 2 2 4 7 12 13 14 20 25 18 13 11 11 20 20 7 11 12 10 4 13 13 14
4 4 4 3 4 11 8 4 9 4 5 4 5 1 4 3 4 6 7 2 6 4 2 1 4 5 15 16 18 12 12 15 16 18 13 19 20 3 12 11 8 10 12 14 17
3 3 4 5 4 5 4 5 7 5 6 6 4 4 3 4 7 12 9 7 7 3 2 0 3 3 10 7 8 9 4 7 12 4 2 4 4 12 17 15 13 8 6 11 17
Wind_Direction
336 331 329 325 322 318 312 305 298 292 286 286 298 301 306 311 303 179 246 218 188 229 351 350 54 2 35 312 107 115 69 180 259 214 236 2 89 239 48 285 360 2 119 161 144
338 335 329 325 323 318 309 303 300 294 290 287 283 290 301 317 289 254 244 215 204 131 102 89 61 12 53 278 347 98 123 206 223 161 258 185 165 218 255 112 292 162 83 127 145
340 333 328 324 320 315 308 302 298 293 292 284 281 289 300 312 307 249 223 213 201 196 204 152 109 87 85 337 223 133 187 200 260 228 204 200 208 239 112 245 223 186 154 149 160
339 334 329 322 315 307 302 298 292 294 293 271 262 276 296 251 263 301 339 184 165 167 177 117 72 115 119 202 219 164 240 226 272 145 102 203 172 239 176 235 56 194 161 155 173
340 335 330 322 312 305 304 299 294 295 285 245 228 241 242 341 252 297 72 127 121 139 163 144 147 137 164 201 291 172 251 273 255 281 219 205 209 212 220 236 289 154 176 171 178
341 337 331 324 313 303 293 291 288 289 274 221 193 174 179 261 244 157 116 123 127 130 159 147 187 207 264 248 167 199 246 283 285 287 226 165 234 156 251 208 227 165 195 144 177
341 339 335 327 317 302 289 284 277 270 244 195 178 229 195 236 31 144 145 165 175 169 163 206 179 85 95 321 256 261 317 339 292 296 264 163 157 215 234 166 210 134 163 145 179
343 340 339 335 325 301 284 266 258 228 182 167 172 256 247 249 280 157 195 204 176 197 230 174 163 154 178 242 0 1 50 340 290 5 288 134 259 258 227 158 206 165 149 125 135
345 342 341 339 328 301 255 247 226 151 143 149 146 172 267 323 223 218 175 211 145 180 269 284 134 187 54 77 10 4 246 220 308 215 253 176 262 266 148 159 179 163 151 150 135
345 342 340 341 330 254 201 127 134 121 146 213 257 333 276 282 214 188 201 178 223 140 294 162 57 81 36 81 232 239 305 295 240 293 49 300 270 271 164 167 168 160 160 163 155
345 342 343 345 346 164 121 104 44 253 227 202 196 235 284 264 220 189 160 115 308 50 193 6 82 221 228 205 190 279 256 254 261 220 338 271 266 272 206 162 167 171 167 166 152
345 342 341 347 7 147 300 210 237 173 296 229 238 255 269 57 336 306 104 144 139 208 127 351 252 218 219 181 206 243 269 277 290 250 162 271 260 273 179 183 182 177 175 170 159
340 336 335 338 1 129 211 235 139 37 309 297 187 207 211 153 210 258 159 169 148 159 186 198 228 145 189 243 222 230 207 268 234 309 213 260 283 286 178 112 192 186 183 175 176
337 332 329 328 257 216 258 272 332 168 37 285 265 284 129 164 249 209 171 141 158 198 194 236 247 237 211 232 169 264 209 247 273 329 260 147 267 294 265 139 198 186 187 196 187
336 331 325 241 181 162 273 327 282 55 55 335 63 133 148 165 261 79 189 71 190 200 131 240 212 192 211 227 149 235 232 221 248 238 207 277 127 266 299 161 213 204 216 209 204
335 332 325 111 0 246 311 312 63 42 0 351 26 352 146 272 346 11 127 47 208 195 245 232 201 183 228 263 172 243 319 84 46 118 235 224 181 260 196 207 183 226 213 187 175
335 329 209 318 312 330 329 42 44 72 325 354 337 339 40 356 8 15 19 54 32 348 295 271 254 251 199 290 285 165 75 312 307 295 239 229 179 224 229 225 208 195 207 190 173
335 342 187 199 316 324 49 57 71 346 353 2 329 335 74 9 2 13 65 28 28 4 297 260 289 189 217 205 232 189 158 170 244 251 285 314 237 256 222 226 198 202 207 177 173
330 352 56 341 339 40 71 56 42 335 327 329 337 21 16 6 358 53 64 14 25 358 358 345 278 327 303 237 157 251 169 207 210 292 323 230 287 285 221 240 228 209 181 188 183
54 47 38 340 339 58 70 100 98 1 333 17 48 18 41 1 16 19 39 19 359 355 337 350 290 270 299 291 255 189 183 253 43 217 252 250 253 236 233 245 250 223 191 176 167
49 48 328 342 36 50 80 70 49 353 28 42 23 41 65 8 342 22 21 48 14 357 30 360 246 306 338 292 284 329 287 252 239 164 250 267 259 217 232 259 254 233 194 173 170
73 55 332 350 52 42 43 6 48 1 16 53 72 57 54 348 28 90 60 34 19 13 2 2 280 280 280 300 327 32 21 47 43 305 261 228 261 252 226 219 187 120 117 117 136
86 17 318 31 91 53 57 68 84 46 30 62 45 54 359 34 47 62 25 352 20 8 358 349 322 318 304 358 33 40 353 1 291 209 251 202 274 282 257 134 146 125 120 127 124
79 43 347 26 52 110 108 33 82 39 44 40 16 60 34 46 338 8 2 342 332 323 327 26 288 260 267 296 314 302 311 328 293 285 321 282 311 314 335 334 152 140 141 145 150
38 70 240 7 13 65 72 29 28 34 58 15 26 52 38 38 343 355 272 312 286 281 355 148 243 247 269 282 299 288 288 290 265 262 260 286 287 291 313 301 279 246 152 162 173
100 103 17 45 25 54 30 31 41 21 31 38 49 13 73 126 205 279 290 263 248 321 306 333 264 278 285 276 266 275 298 282 268 263 256 266 264 2 315 315 313 186 177 174 182
356 48 98 349 25 64 21 39 38 13 69 87 4 5 328 291 277 266 246 250 243 265 279 193 324 318 283 278 291 295 242 278 278 211 268 260 313 325 328 332 338 322 287 202 184